This demonstration page uses our WeatherBlox Daily Observations layout. Learn more.

Left ArrowRight Arrow

34.74481, -87.66753

Hourly Observations for July 6, 2022

Temp ( °F °C ) Dew Point ( °F °C ) Humidity (%) Winds ( mph kmh ) Pressure ( in mb ) Visibility ( mi km ) Precip ( " mm )
12:53 am 00:53 Clear 80 26.7 72 22.2 76 76 SSE 3 6 29.96 1015 10 16 0.00 0.00
1:53 am 01:53 Clear 78 25.6 73 22.8 85 85 SSW 3 6 29.97 1015 10 16 0.00 0.00
2:53 am 02:53 Clear 77 25 73 22.8 88 88 SSW 3 6 29.96 1015 10 16 0.00 0.00
3:53 am 03:53 Clear 77 25 72 22.2 85 85 S 3 6 29.96 1015 10 16 0.00 0.00
4:53 am 04:53 Clear 77 25 73 22.8 88 88 S 5 7 29.98 1015 10 16 0.00 0.00
5:53 am 05:53 Sunny 76 24.4 73 22.8 91 91 Calm 29.98 1015 10 16 0.00 0.00
6:53 am 06:53 Cloudy 80 26.7 75 23.9 85 85 Calm 30.00 1016 10 16 0.00 0.00
7:53 am 07:53 Mostly Cloudy 82 27.8 74 23.3 77 77 W 5 7 30.01 1016 10 16 0.00 0.00
8:53 am 08:53 Cloudy 84 28.9 74 23.3 72 72 WSW 6 9 30.02 1017 10 16 0.00 0.00
9:53 am 09:53 Cloudy 83 28.3 77 25 82 82 NW 3 6 30.02 1017 10 16 0.02 0.51
10:53 am 10:53 Partly Cloudy 91 32.8 77 25 64 64 N 3 6 30.01 1016 10 16 0.00 0.00
11:53 am 11:53 Mostly Cloudy 92 33.3 76 24.4 60 60 Calm 29.99 1016 10 16 0.00 0.00
12:49 pm 12:49 Cloudy with Heavy Rain 82 28 77 25 84 84 N 6 9 29.97 1015 2 3 0.15 3.81
12:53 pm 12:53 Cloudy with Rain 84 28.9 77 25 80 80 VRB 6 9 29.98 1015 2 3 0.16 4.06
12:56 pm 12:56 Cloudy with Light Rain 84 28.9 78 25.6 82 82 NE 8 13 29.97 1015 3 5 0.00 0.00
1:15 pm 13:15 Partly Cloudy with Thunderstorms 85 29.4 78 25.6 80 80 ESE 3 6 29.97 1015 10 16 0.00 0.00
1:34 pm 13:34 Mostly Cloudy with Nearby Thunderstorms 84 28.9 77 25 80 80 SE 5 7 29.96 1015 10 16 0.00 0.00
1:46 pm 13:46 Partly Cloudy 84 28.9 78 25.6 82 82 SE 3 6 29.95 1014 10 16 0.00 0.00
1:53 pm 13:53 Mostly Sunny 84 28.9 78 25.6 82 82 E 3 6 29.96 1014 10 16 0.00 0.00
2:53 pm 14:53 Sunny 90 32.2 79 26.1 70 70 E 5 7 29.94 1014 10 16 0.00 0.00
3:26 pm 15:26 Sunny with Thunderstorms 92 33.3 76 24.4 60 60 ESE 6 9 29.90 1013 10 16 0.00 0.00
3:53 pm 15:53 Partly Cloudy with Nearby Thunderstorms 89 31.7 73 22.8 59 59 WSW 8 13 29.93 1014 10 16 0.00 0.00
4:13 pm 16:13 Partly Cloudy with Thunderstorms 87 30.6 74 23.3 65 65 WSW 7 11 29.92 1013 10 16 0.00 0.00
4:41 pm 16:41 Mostly Cloudy with Thunderstorms 84 28.9 73 22.8 70 70 WNW 20 31 29.95 1014 10 16 0.00 0.00
4:53 pm 16:53 Cloudy with Thunderstorms 81 27.2 74 23.3 79 79 WNW 13 20 29.98 1015 7 11 0.01 0.25
5:24 pm 17:24 Mostly Cloudy with Nearby Thunderstorms 78 25.6 76 24.4 93 93 WSW 12 19 29.96 1014 6 10 0.07 1.78
5:34 pm 17:34 Partly Cloudy with Thunderstorms 78 25.6 75 23.9 90 90 WSW 10 17 29.95 1014 10 16 0.07 1.78
5:53 pm 17:53 Sunny 79 26.1 75 23.9 88 88 WSW 6 9 29.95 1014 10 16 0.07 1.78
6:07 pm 18:07 Partly Cloudy with Thunderstorms 79 26.1 75 23.9 88 88 W 6 9 29.95 1014 10 16 0.00 0.00
6:22 pm 18:22 Partly Cloudy with Light Rain 79 26.1 73 22.8 82 82 WSW 3 6 29.94 1014 10 16 0.00 0.00
6:53 pm 18:53 Mostly Sunny 78 25.6 74 23.3 87 87 SE 8 13 29.94 1014 10 16 0.01 0.25
7:53 pm 19:53 Mostly Cloudy 77 25 74 23.3 90 90 ESE 3 6 29.95 1014 10 16 0.01 0.25
8:53 pm 20:53 Mostly Clear 77 25 74 23.3 90 90 Calm 29.97 1015 10 16 0.00 0.00
9:53 pm 21:53 Clear 77 25 74 23.3 90 90 Calm 29.97 1015 10 16 0.00 0.00
10:53 pm 22:53 Clear 77 25 74 23.3 90 90 Calm 29.96 1015 10 16 0.00 0.00
11:53 pm 23:53 Clear 75 23.9 73 22.8 94 94 Calm 29.96 1014 10 16 0.00 0.00

Powered by AerisWeather